Location: Izdebno
(52.6670°N, 16.2170°E)
Time: 04:38:47
(UTC+02:00)

Transit 2A - Pass Details

Date: 27 February 2024
Orbit: 596 x 956 km, 66.7° (Epoch: 21 April)

Event Time Altitude Azimuth Distance (km) Brightness Sun altitude
Rises 01:26:27 0° 319° (NW) 2,915 - -43.1°
Reaches altitude 10° 01:29:02 10° 334° (NNW) 2,045 - -43.0°
Maximum altitude 01:32:48 24° 29° (NNE) 1,392 - -42.7°
Drops below altitude 10° 01:36:49 10° 83° (E) 2,197 - -42.4°
Sets 01:39:42 0° 97° (E) 3,185 - -42.2°
